Location: Boiro
(42.6475°N, 8.8834°W)
Time: 17:16:13
(UTC+01:00)

Tiros 1 - Pass Details

Date: 09 December 2021
Orbit: 630 x 663 km, 48.4° (Epoch: 20 January)

Event Time Altitude Azimuth Distance (km) Brightness Sun altitude
Rises 21:53:26 0° 292° (WNW) 2,932 11.3 -41.7°
Enters shadow 21:55:17 - 296° (WNW) 2,229 10.5 -42.0°
Reaches altitude 10° 21:55:49 10° 298° (WNW) 2,027 - -42.1°
Maximum altitude 22:00:21 49° 13° (NNE) 834 - -42.9°
Drops below altitude 10° 22:04:55 10° 89° (E) 2,045 - -43.8°
Sets 22:07:20 0° 95° (E) 2,960 - -44.2°
